Regional Weather Roundup
Issued by NWS Midland/Odessa, TX

Skip options and go directly to product.
Home | Oldest Version | Previous Version | Current Version | All | Graphics & Text | Save Text | Print | Product List | Glossary On

Skip product version selection by date and time.   
259
ASUS44 KMAF 221010
RWRMAF
MIDLAND AREA WEATHER ROUNDUP
NATIONAL WEATHER SERVICE MIDLAND TX
500 AM CDT MON SEP 22 2014

...IN SOUTHWEST TEXAS AND SOUTHEAST NEW MEXICO...

CITY           SKY/WX    TMP DP  RH WIND       PRES   REMARKS
ALPINE         CLOUDY    68  61  78 E6        30.28F
ANDREWS        FAIR      67  66  97 E8        30.22S
ARTESIA        NOT AVBL
BIG SPRING     CLOUDY    74  71  91 NE8       30.22S
CARLSBAD       CLOUDY    69  32  25 NE3       30.20S
DRYDEN           N/A     78  70  76 NE7       30.13S
FORT STOCKTON  LGT RAIN  69  68  96 E5        30.18S
GUAD PASS      LGT RAIN  62  32  32 E26         N/A  VSB 1/4
HOBBS          MOCLDY    66  66 100 NE9       30.25S
MARFA          MOCLDY    64  63  94 CALM      30.27S
MIDLAND AIRPK  MOCLDY    70  70  99 E5        30.21S
MIDLAND INTL   CLOUDY    70  68  93 NE8       30.19F
ODESSA         CLOUDY    70  67  90 E8        30.21S
PECOS          LGT RAIN  68  66  94 NE12      30.16F
PRESIDIO       CLOUDY    75  65  70 NE12G18   30.11S
SEMINOLE       MOCLDY    66  66  97 CALM      30.25S
SNYDER         CLOUDY    68  66  93 NE9       30.22R
WINK           CLOUDY    71  69  93 SE15      30.18S
$$
...OTHER STATIONS IN TEXAS...

CITY           SKY/WX    TMP DP  RH WIND       PRES   REMARKS
ABILENE        MOCLDY    72  64  76 E9        30.18R
AMARILLO       MOCLDY    60  55  83 E8        30.30F
AUSTIN         CLEAR     68  67  96 CALM      30.08S
BROWNSVILLE    CLOUDY    78  75  90 E7        29.97S
CORPUS CHRISTI PTCLDY    77  73  87 NE7       30.01S
DALLAS FTW     MOCLDY    75  58  55 NE8       30.14R
DEL RIO        PTCLDY    76  71  85 E5        30.08F
EL PASO        CLOUDY    72  64  76 E9        30.16F
HOUSTON INT    PTCLDY    74  70  87 CALM      30.04R
LUBBOCK        CLOUDY    64  62  93 E7        30.26R
SAN ANGELO     CLOUDY    71  67  87 CALM      30.15S
SAN ANTONIO    CLEAR     70  65  84 NW6       30.09S
WACO           PTCLDY    70  66  87 N6        30.10R
WICHITA FALLS  NOT AVBL
$$
...OTHER LOCATIONS IN NEW MEXICO...

CITY           SKY/WX    TMP DP  RH WIND       PRES   REMARKS
ALAMAGORDO     CLOUDY    68  61  77 N8        30.21S
ALBUQUERQUE    CLOUDY    66  55  67 E12       30.29S
CANNON AFB     CLOUDY    63  61  94 E13       30.31R FOG
CLOVIS           N/A     63  57  82 E12       30.33S
HOLLOMAN AFB   CLOUDY    67  63  89 E6        30.18F
ROSWELL        MOCLDY    67  65  93 E5        30.24F
RUIDOSO        LGT RAIN  57  57 100 SE12      30.40F VSB 1
SANTA FE       CLOUDY    62  54  74 S6        30.37S
TRUTH OR CONSE CLOUDY    66  62  87 NW5       30.23F
TUCUMCARI      CLOUDY    66  63  90 E7        30.30S
$$

USA.gov is the U.S. government's official web portal to all federal, state and local government web resources and services.